This is the latest recevied weather packets stored in our database for station/object N0KTA-2. If no packets are shown the sender has not sent any weather packets the latest 10 day(s).
| Time | Temp. | Humidity | Pressure | Rain* | Wind** | Luminosity | Snow |
|---|---|---|---|---|---|---|---|
| 1777578565 | 17.78° C | 47% | 1015 hPa | 0 mm | - | - | - |
| 1777577964 | 17.78° C | 46% | 1015 hPa | 0 mm | - | - | - |
| 1777577364 | 17.78° C | 50% | 1015 hPa | 0 mm | - | - | - |
| 1777576765 | 17.78° C | 52% | 1015 hPa | 0 mm | - | - | - |
| 1777576164 | 17.78° C | 53% | 1015 hPa | 0 mm | - | - | - |
| 1777575565 | 17.22° C | 51% | 1015 hPa | 0 mm | - | - | - |
| 1777574964 | 17.22° C | 54% | 1015.1 hPa | 0 mm | - | - | - |
| 1777574363 | 16.67° C | 51% | 1015.3 hPa | 0 mm | - | - | - |
| 1777573763 | 16.67° C | 54% | 1015.4 hPa | 0 mm | - | - | - |
| 1777573164 | 16.11° C | 52% | 1015.7 hPa | 0 mm | - | - | - |
| 1777572564 | 16.11° C | 53% | 1015.7 hPa | 0 mm | - | - | - |
| 1777571963 | 16.11° C | 56% | 1015.6 hPa | 0 mm | - | - | - |
| 1777571364 | 16.11° C | 58% | 1015.6 hPa | 0 mm | - | - | - |
| 1777570764 | 16.11° C | 57% | 1015.9 hPa | 0 mm | - | - | - |
| 1777570163 | 16.11° C | 56% | 1016.1 hPa | 0 mm | - | - | - |
| 1777569564 | 16.11° C | 57% | 1016.1 hPa | 0 mm | - | - | - |
| 1777568965 | 15.56° C | 60% | 1016.3 hPa | 0 mm | - | - | - |
| 1777568364 | 15.56° C | 58% | 1016.5 hPa | 0 mm | - | - | - |
| 1777567764 | 15.56° C | 59% | 1016.6 hPa | 0 mm | - | - | - |
| 1777567163 | 15° C | 61% | 1016.6 hPa | 0 mm | - | - | - |
| 1777566564 | 15° C | 57% | 1016.7 hPa | 0 mm | - | - | - |
| 1777565963 | 15° C | 58% | 1016.8 hPa | 0 mm | - | - | - |
| 1777565364 | 14.44° C | 61% | 1016.7 hPa | 0 mm | - | - | - |
| 1777564763 | 14.44° C | 64% | 1016.7 hPa | 0 mm | - | - | - |
| 1777564164 | 13.89° C | 63% | 1016.7 hPa | 0 mm | - | - | - |
* Rain latest hour (hover to see other rain measurements)
** Current wind speed in m/s (hover to see current wind gust speed)